アトラス彗星

C/2017 M4 ( ATLAS )

English version
Home page
Updated on May 23, 2019

---------------------------------------------------------------------

・ プロフィール

発見日 2017年6月21日
発見光度 18.3等
発見者 Asteroid Terrestrial-impact Last Alert System (ATLAS) Team

・ 写真集

・ 軌道要素

Epoch 2019 Feb. 6.0 TT = JDT 2458520.5
T 2019 Jan. 18.19138 TT                                 MPCW
q   3.2517665            (2000.0)            P               Q
z  -0.0007055      Peri.  167.62202     -0.34655038     -0.32821715
 +/-0.0000005      Node    65.86730     -0.92163685     +0.29351618
e   1.0022940      Incl.  105.65767     -0.17460912     -0.89784283
From 1634 observations 2017 June 16-2019 May 12, mean residual 0".6.

・ 星図

・ 光度変化

        m1 = 6.0 + 5 logΔ + 10.0 log r

---------------------------------------------------------------------

軌道要素はM.P.E.C. 2019-J142に掲載されたものです。
星図はステラナビゲータ Ver.10 (アストロアーツ) で作成したものです。
光度グラフはComet for Windowsで作成したものです。

---------------------------------------------------------------------

Copyright(C) Seiichi Yoshida (comet@aerith.net). All rights reserved.